Location: Astronomy Club of Akron Observatory
(40.9700°N, 81.5606°W)
Time: 06:32:09
(UTC-04:00)

Hubble Space Telescope - Pass Details

Date: 17 June 2018
Orbit: 537 x 541 km, 28.5° (Epoch: 17 August)

Event Time Altitude Azimuth Distance (km) Brightness Sun altitude
Rises 22:37:21 0° 244° (WSW) 2,672 4.5 -14.5°
Reaches altitude 10° 22:41:44 10° 201° (SSW) 1,778 3.1 -15.0°
Enters shadow 22:41:54 10° 198° (SSW) 1,771 3.1 -15.1°
